Location: Mentone
(34.5413°N, 85.5351°W)
Time: 15:03:10
(UTC-06:00)

ATLAS 5 CENTAUR R/B - Visible Passes

Search period start: 19 February 2017 00:00
Search period end: 01 March 2017 00:00
Orbit: 647 x 1013 km, 63.4° (Epoch: 03 February)

Date Brightness Start Highest point End Pass type
(mag) Time Alt. Az. Time Alt. Az. Time Alt. Az.
19 Feb 1.6 04:50:58 26° SW 04:53:38 80° WNW 04:58:39 10° NNE visible
20 Feb 1.6 04:33:41 56° SW 04:34:43 86° NW 04:39:44 10° NNE visible
21 Feb 1.8 04:16:10 76° NE 04:16:10 76° NE 04:20:48 10° NNE visible
22 Feb 2.7 03:58:27 43° NE 03:58:27 43° NE 04:01:52 10° NNE visible
22 Feb 3.7 05:40:02 10° WNW 05:42:16 13° NW 05:44:37 10° NNW visible
23 Feb 3.6 03:40:36 27° NE 03:40:36 27° NE 03:42:55 10° NE visible
23 Feb 3.6 05:22:11 13° NW 05:23:17 14° NW 05:25:53 10° N visible
24 Feb 4.2 03:22:37 18° NE 03:22:37 18° NE 03:23:59 10° NE visible
24 Feb 3.6 05:04:11 15° NW 05:04:17 15° NW 05:07:08 10° N visible
25 Feb 4.7 03:04:33 13° NE 03:04:33 13° NE 03:05:02 10° NE visible
25 Feb 3.7 04:46:07 15° NNW 04:46:07 15° NNW 04:48:21 10° N visible
26 Feb 3.9 04:27:58 14° NNW 04:27:58 14° NNW 04:29:33 10° N visible
27 Feb 4.1 04:09:46 13° NNW 04:09:46 13° NNW 04:10:45 10° N visible
28 Feb 4.4 03:51:30 11° N 03:51:30 11° N 03:51:56 10° N visible
